[[{"header":{"parameterUnit":"m.s-1","parameterCategory":2,"la1":30.2991,"la2":30.254,"lo1":-89.0895,"lo2":-89.0444,"dy":0.0017,"dx":0.0017,"nx":28,"ny":28,"refTime":"2025-11-16T03:00:00:Z","depth":"0","parameterNumber":2,"parameterNumberName":"U-component_of_CURRENTS"},"data":[0,0,0,0,0,0,0,0,0,0,0,0,0,0,0,0,0,0,0,0,0,0,0,0,0,0,0,0,0,0,0,0,0,0,0,0,0,0,0,0,0,0,0,0,0,0,0,0,0,0,0,0,0,0,0,0,0,0,0.4185,0.4186,0,0.4214,0.4213,0.4213,0.4158,0.4157,0.4156,0.4155,0.4204,0.4207,0.4209,0,0,0,0,0,0,0,0,0,0,0,0,0,0.4132,0.4132,0.4185,0.4186,0.4187,0.4214,0.4213,0.4213,0.4159,0.4157,0.4156,0.4155,0.4204,0.4206,0.4209,0,0,0,0,0,0,0,0,0,0,0,0,0,0.4149,0.4132,0.4185,0.4169,0.4169,0.4214,0.4213,0.4213,0.4159,0.4157,0.4156,0.4154,0.4203,0.4206,0.4209,0.4261,0,0,0.422,0.4221,0,0,0,0,0,0,0,0,0.4148,0.415,0.4171,0.4171,0.417,0.4188,0.4213,0.4233,0.4159,0.4154,0.4155,0.4154,0.4208,0.4211,0.4207,0.4264,0.4266,0.422,0.4222,0.4224,0.4225,0,0,0,0,0,0,0,0.4147,0.4149,0.4188,0.4172,0.4172,0.4179,0.4178,0.4216,0.4183,0.4154,0.4152,0.417,0.4206,0.4204,0.4208,0.4266,0.422,0.4223,0.4225,0.4226,0.4387,0.4389,0,0,0,0,0,0,0.416,0.4147,0.4187,0.4189,0.4165,0.4181,0.418,0.4177,0.4182,0.4183,0.4171,0.4167,0.4199,0.4204,0.421,0.4271,0.4224,0.4227,0.4229,0.4385,0.4387,0.439,0,0,0,0,0,0,0.4158,0.4162,0.4186,0.4177,0.4181,0.4184,0.4181,0.4179,0.4172,0.4196,0.4196,0.4168,0.4198,0.4205,0.4255,0.4273,0.4228,0.4231,0.4382,0.4386,0.4389,0.4396,0,0,0,0,0,0,0.4156,0.416,0.4159,0.4177,0.4183,0.4221,0.4184,0.4181,0.419,0.4185,0.4194,0.4197,0.4197,0.425,0.4259,0.4277,0.4234,0.4379,0.4384,0.4388,0.4393,0.4399,0.4404,0,0,0,0,0,0.4153,0.4162,0.4158,0.4164,0.4181,0.4223,0.4226,0.4218,0.4192,0.4201,0.4211,0.4196,0.4282,0.4255,0.4264,0.4284,0.4377,0.4382,0.4387,0.439,0.4398,0.4404,0,0,0,0,0,0,0.4141,0.4159,0.4155,0.4167,0.4199,0.4217,0.423,0.4224,0.4235,0.4229,0.4229,0.4234,0.4285,0.4297,0.4266,0.4347,0.4327,0.4334,0.4326,0.4333,0.4339,0.433,0.4237,0,0,0,0,0,0.4141,0.4144,0.4176,0.4189,0.4206,0.4217,0.423,0.4232,0.4252,0.4251,0.4257,0.4278,0.4316,0.4332,0.4366,0.4414,0.4435,0.4435,0.4441,0.4445,0.4448,0.4498,0.4507,0.4406,0.4406,0.4406,0,0,0.4145,0.4154,0.4158,0.4187,0.4203,0.4234,0.4218,0.425,0.4265,0.4262,0.4277,0.4303,0.4338,0.4385,0.4408,0.4392,0.4491,0.4452,0.4455,0.4455,0.4504,0.4513,0.4521,0.441,0.4409,0.4409,0,0,0.4168,0.416,0.418,0.4205,0.4245,0.4253,0.4265,0.429,0.4286,0.4325,0.4326,0.4364,0.441,0.4433,0.4453,0.4519,0.4524,0.4533,0.4547,0.4595,0.4603,0.461,0.4664,0.4675,0.4529,0.4529,0.4529,0,0.4174,0.4185,0.4198,0.4229,0.4237,0.4261,0.4283,0.4305,0.4338,0.434,0.4335,0.4406,0.4431,0.4489,0.451,0.4529,0.4561,0.4509,0.4599,0.4606,0.4614,0.4667,0.468,0.453,0.453,0.453,0.453,0,0.4215,0.4223,0.4241,0.4268,0.4286,0.4312,0.4343,0.4357,0.4352,0.437,0.4419,0.4462,0.4494,0.452,0.4535,0.4603,0.4612,0.4601,0.4571,0.4623,0.4678,0.4691,0.4531,0.4531,0.4531,0.453,0,0,0.4203,0.4256,0.4254,0.4253,0.4295,0.4305,0.434,0.4364,0.4368,0.4419,0.4425,0.451,0.4523,0.455,0.4579,0.4629,0.4713,0.4637,0.464,0.4673,0.4832,0.4795,0.4806,0.4714,0.4716,0.4718,0.4853,0,0.4218,0.4256,0.4276,0.429,0.4299,0.4316,0.4335,0.4364,0.4385,0.4408,0.4468,0.4506,0.454,0.4555,0.4615,0.4682,0.4747,0.4678,0.4792,0.4796,0.4741,0.4819,0.4589,0.4687,0.4866,0.4868,0.487,0,0.4227,0.424,0.4259,0.4258,0.4261,0.4276,0.4265,0.4295,0.4355,0.4375,0.4435,0.4482,0.4574,0.4585,0.474,0.4695,0.4772,0.4829,0.4835,0.4804,0.4783,0.4663,0.4704,0.4495,0.489,0.4889,0.4887,0,0.4166,0.4205,0.4198,0.4206,0.4238,0.4227,0.4234,0.4277,0.429,0.436,0.4379,0.449,0.4529,0.4654,0.4784,0.4766,0.4951,0.493,0.498,0.4978,0.4806,0.4786,0.4636,0.5051,0.5051,0.5051,0.505,0,0.4141,0.4129,0.4167,0.4163,0.4138,0.4172,0.416,0.4189,0.4238,0.4255,0.4358,0.4397,0.4548,0.4667,0.4793,0.4933,0.4962,0.5004,0.5016,0.4806,0.4785,0.4614,0.4544,0.5056,0.5055,0.5054,0.5053,0,0.408,0.4112,0.41,0.4117,0.4114,0.4093,0.4107,0.4107,0.4166,0.419,0.4215,0.4337,0.4478,0.4648,0.484,0.4921,0.4921,0.5117,0.4868,0.4848,0.4669,0.461,0.4463,0.436,0.518,0.518,0.518,0,0.4051,0.4047,0.4053,0.4031,0.4035,0.4019,0.4009,0.4062,0.4068,0.4152,0.4158,0.4296,0.439,0.4668,0.4813,0.5023,0.489,0.4941,0.4862,0.464,0.4584,0.4454,0.4368,0.4649,0.4644,0.4641,0.4638,0,0.3983,0.3992,0.3983,0.3955,0.3932,0.3909,0.3901,0.3899,0.3957,0.3997,0.4062,0.415,0.4369,0.4449,0.4701,0.4816,0.4644,0.4875,0.4688,0.4201,0.4003,0.3913,0.4594,0.4606,0.4609,0.4612,0.4613,0.4615,0.3915,0.3896,0.3887,0.3845,0.3824,0.3779,0.3724,0.3743,0.375,0.3758,0.392,0.3968,0.4091,0.4393,0.4483,0.4383,0.4459,0.4271,0.4241,0.4147,0.3955,0.4585,0.458,0.4583,0.4586,0.4588,0.459,0,0.3806,0.3797,0.3769,0.3709,0.3647,0.3671,0.3626,0.3559,0.3524,0.3594,0.3657,0.3665,0.3731,0.3822,0.3829,0.3739,0.3644,0.3633,0.3337,0.3309,0.3885,0.3762,0.3522,0.3522,0.3522,0.3522,0.3523,0.3523,0.3745,0.3687,0.3679,0.3543,0.3497,0.3366,0.3317,0.3252,0.3253,0.3165,0.3114,0.3169,0.3229,0.3241,0.3103,0.3087,0.2869,0.2772,0.2828,0.3137,0.3191,0.3242,0.3104,0.273,0.2729,0.2091,0.2085,0.2081]},{"header":{"parameterUnit":"m.s-1","parameterCategory":2,"la1":30.2991,"la2":30.254,"lo1":-89.0895,"lo2":-89.0444,"dy":0.0017,"dx":0.0017,"nx":28,"ny":28,"refTime":"2025-11-16T03:00:00:Z","depth":"0","parameterNumber":3,"parameterNumberName":"V-component_of_CURRENTS"},"data":[0,0,0,0,0,0,0,0,0,0,0,0,0,0,0,0,0,0,0,0,0,0,0,0,0,0,0,0,0,0,0,0,0,0,0,0,0,0,0,0,0,0,0,0,0,0,0,0,0,0,0,0,0,0,0,0,0,0,0.0233,0.0233,0,0.0186,0.0185,0.0184,0.0142,0.0142,0.0141,0.0141,0.0075,0.0074,0.0073,0,0,0,0,0,0,0,0,0,0,0,0,0,0.0264,0.0264,0.0233,0.0233,0.0232,0.0186,0.0185,0.0184,0.0142,0.0142,0.0141,0.0141,0.0076,0.0074,0.0072,0,0,0,0,0,0,0,0,0,0,0,0,0,0.0235,0.0263,0.0233,0.0207,0.0204,0.0186,0.0185,0.0184,0.0142,0.0141,0.0141,0.0141,0.0076,0.0074,0.0072,0.0069,0,0,0.0066,0.0065,0,0,0,0,0,0,0,0,0.0237,0.0234,0.0211,0.0209,0.0206,0.0171,0.0172,0.0145,0.0142,0.0164,0.0141,0.014,0.0107,0.0103,0.0092,0.0065,0.0063,0.0065,0.0064,0.0063,0.0062,0,0,0,0,0,0,0,0.0239,0.0236,0.0212,0.0211,0.0208,0.019,0.0185,0.0166,0.0137,0.0162,0.0159,0.0157,0.0105,0.0094,0.009,0.0062,0.0065,0.0063,0.0062,0.0061,0.0039,0.004,0,0,0,0,0,0,0.025,0.0238,0.0214,0.0211,0.0223,0.019,0.0185,0.0181,0.0137,0.0131,0.0157,0.0155,0.0098,0.0093,0.0088,0.0098,0.0063,0.0061,0.006,0.0038,0.0039,0.004,0,0,0,0,0,0,0.0251,0.0249,0.0216,0.0225,0.022,0.019,0.0186,0.018,0.0169,0.0135,0.0127,0.0153,0.0098,0.0091,0.0084,0.0095,0.006,0.0058,0.0038,0.0039,0.004,0.0108,0,0,0,0,0,0,0.0252,0.0249,0.0247,0.0226,0.022,0.0205,0.0187,0.018,0.017,0.0166,0.0128,0.0122,0.0097,0.0088,0.0082,0.0091,0.0056,0.0037,0.0038,0.0039,0.0105,0.0112,0.0117,0,0,0,0,0,0.0254,0.0245,0.0247,0.0244,0.0218,0.0206,0.0201,0.0177,0.017,0.0165,0.0152,0.0123,0.0092,0.0087,0.008,0.0089,0.0036,0.0038,0.0039,0.0103,0.011,0.0117,0,0,0,0,0,0,0.0249,0.024,0.0241,0.0229,0.0223,0.0199,0.0189,0.0182,0.0166,0.0163,0.0135,0.0127,0.0126,0.0099,0.0095,0.0086,0.0058,0.0058,0.0108,0.0115,0.0121,0.013,0.0055,0,0,0,0,0,0.0253,0.0247,0.024,0.0231,0.0229,0.0214,0.0206,0.0195,0.0181,0.0173,0.0154,0.0135,0.0127,0.0116,0.01,0.0095,0.0087,0.0095,0.0101,0.0106,0.0109,0.0123,0.0131,0.0045,0.0045,0.0045,0,0,0.025,0.0243,0.0241,0.0231,0.0222,0.0221,0.0207,0.0196,0.0199,0.017,0.0164,0.0156,0.0132,0.0131,0.0127,0.0109,0.0127,0.0108,0.0113,0.0112,0.0125,0.0134,0.0141,0.0046,0.0046,0.0046,0,0,0.0242,0.0238,0.0233,0.0232,0.0226,0.0221,0.0224,0.0211,0.0207,0.0207,0.0196,0.0203,0.0171,0.0171,0.0164,0.0194,0.0162,0.0178,0.021,0.0224,0.0232,0.0238,0.0243,0.0249,0.0177,0.0177,0.0177,0,0.0238,0.0236,0.023,0.0228,0.0232,0.0226,0.0231,0.0226,0.0216,0.0228,0.021,0.0216,0.0194,0.0217,0.0222,0.0208,0.0204,0.0187,0.0234,0.024,0.0245,0.0248,0.0254,0.018,0.018,0.018,0.0179,0,0.0231,0.0233,0.023,0.0233,0.0235,0.0237,0.0242,0.0249,0.0249,0.0254,0.0279,0.0268,0.0274,0.0269,0.0248,0.028,0.0261,0.0246,0.0219,0.0258,0.0259,0.0264,0.0185,0.0184,0.0183,0.0182,0,0,0.0217,0.0224,0.0225,0.0239,0.0243,0.0248,0.0262,0.0283,0.0313,0.0306,0.0351,0.0339,0.0347,0.034,0.0331,0.0337,0.037,0.0303,0.0302,0.0314,0.0395,0.0373,0.0376,0.0361,0.0363,0.0364,0.0382,0,0.0217,0.0223,0.0228,0.0248,0.0258,0.0272,0.0293,0.0314,0.0334,0.0376,0.0385,0.0413,0.037,0.0387,0.039,0.0385,0.0385,0.0366,0.0349,0.0349,0.033,0.0382,0.0385,0.0401,0.0387,0.0388,0.0388,0,0.0213,0.0221,0.0236,0.0277,0.0285,0.0298,0.0353,0.0373,0.0426,0.0446,0.048,0.0489,0.0515,0.0471,0.0474,0.0462,0.0427,0.0412,0.0413,0.037,0.0336,0.0358,0.041,0.0246,0.0395,0.0395,0.0394,0,0.0213,0.0234,0.0252,0.026,0.0297,0.0318,0.0345,0.0395,0.0438,0.05,0.0546,0.0568,0.0599,0.0567,0.0529,0.0501,0.0533,0.0492,0.0439,0.0436,0.0425,0.042,0.0323,0.0485,0.0485,0.0485,0.0485,0,0.0214,0.0231,0.0256,0.0266,0.0312,0.0332,0.0396,0.0429,0.0502,0.0579,0.0585,0.0661,0.0622,0.0636,0.0574,0.0536,0.0566,0.0458,0.0447,0.0448,0.0445,0.0288,0.0204,0.0485,0.0485,0.0485,0.0485,0,0.021,0.0221,0.025,0.0291,0.0311,0.0344,0.0425,0.0485,0.0538,0.0644,0.0668,0.0739,0.077,0.0724,0.0697,0.0603,0.0489,0.0531,0.0531,0.0519,0.0293,0.0214,0.015,0.011,0.0472,0.0472,0.0472,0,0.0207,0.0217,0.0267,0.0299,0.0319,0.0375,0.0431,0.0495,0.057,0.0705,0.0772,0.0836,0.0936,0.0889,0.0747,0.065,0.0513,0.0528,0.0466,0.029,0.0195,0.0157,0.0125,0.0481,0.0481,0.0481,0.0481,0,0.0208,0.0223,0.0253,0.0318,0.0373,0.0449,0.0532,0.0602,0.0703,0.082,0.0994,0.1092,0.1055,0.101,0.0835,0.072,0.0423,0.0519,0.0348,0.0205,0.0149,0.0102,0.0444,0.0479,0.0479,0.048,0.048,0.048,0.0214,0.024,0.0285,0.0348,0.0422,0.0533,0.0628,0.0754,0.0914,0.1159,0.1195,0.1429,0.1235,0.1036,0.0826,0.0394,0.0426,0.0261,0.0186,0.0167,0.0107,0.0437,0.0448,0.0448,0.0448,0.0447,0.0447,0,0.0224,0.0261,0.0321,0.0413,0.051,0.0546,0.0712,0.0863,0.11,0.1358,0.1568,0.163,0.1362,0.1014,0.0433,0.0126,0.0025,-0.0058,-0.0128,-0.0139,0.0162,0.0137,0.0067,0.0067,0.0068,0.0068,0.0068,0.0068,0.0236,0.0285,0.0319,0.047,0.0555,0.0735,0.0852,0.1108,0.1343,0.1723,0.1918,0.202,0.167,0.0628,-0.0082,-0.0239,-0.0431,-0.0464,-0.0552,-0.0397,-0.0374,-0.0352,-0.0398,-0.0578,-0.0579,-0.0803,-0.0806,-0.0809]}],[{"header":{"parameterUnit":"m.s-1","parameterCategory":2,"la1":30.2991,"la2":30.254,"lo1":-89.0895,"lo2":-89.0444,"dy":0.0017,"dx":0.0017,"nx":28,"ny":28,"refTime":"2025-11-16T03:00:00:Z","depth":"2","parameterNumber":2,"parameterNumberName":"U-component_of_CURRENTS"},"data":[0,0,0,0,0,0,0,0,0,0,0,0,0,0,0,0,0,0,0,0,0,0,0,0,0,0,0,0,0,0,0,0,0,0,0,0,0,0,0,0,0,0,0,0,0,0,0,0,0,0,0,0,0,0,0,0,0,0,0.1434,0.1433,0,0.1414,0.1414,0.1415,0.1462,0.1463,0.1464,0.1465,0.1549,0.155,0.1552,0,0,0,0,0,0,0,0,0,0,0,0,0,0.1483,0.1482,0.1434,0.1433,0.1433,0.1414,0.1414,0.1415,0.1462,0.1463,0.1464,0.1466,0.1549,0.155,0.1552,0,0,0,0,0,0,0,0,0,0,0,0,0,0.1466,0.1482,0.1434,0.1452,0.1453,0.1414,0.1414,0.1415,0.1461,0.1463,0.1465,0.1467,0.1549,0.155,0.1552,0.1526,0,0,0.1557,0.1558,0,0,0,0,0,0,0,0,0.1467,0.1464,0.1449,0.145,0.1451,0.144,0.1462,0.1456,0.1461,0.1461,0.1465,0.1467,0.1519,0.1523,0.1519,0.153,0.1534,0.1557,0.1558,0.1559,0.1559,0,0,0,0,0,0,0,0.1468,0.1465,0.1429,0.1449,0.145,0.145,0.1451,0.1461,0.1485,0.1462,0.1464,0.1456,0.1521,0.1517,0.1521,0.1535,0.1557,0.1559,0.156,0.156,0.1615,0.1615,0,0,0,0,0,0,0.1463,0.1466,0.143,0.1429,0.146,0.1448,0.1448,0.1444,0.1482,0.1488,0.1455,0.1458,0.1513,0.1519,0.1524,0.1598,0.1559,0.156,0.1561,0.1614,0.1615,0.1615,0,0,0,0,0,0,0.1464,0.146,0.1431,0.1444,0.144,0.1445,0.144,0.1443,0.1465,0.1475,0.1484,0.1477,0.1515,0.1522,0.1561,0.1598,0.1561,0.1563,0.1614,0.1614,0.1615,0.1681,0,0,0,0,0,0,0.1466,0.1461,0.1475,0.1444,0.1439,0.1433,0.1438,0.1441,0.1454,0.1459,0.1496,0.1504,0.1517,0.1558,0.1563,0.16,0.1564,0.1613,0.1614,0.1615,0.1678,0.1684,0.1689,0,0,0,0,0,0.1468,0.1449,0.1476,0.1472,0.1452,0.1434,0.1433,0.1443,0.1453,0.1469,0.1494,0.1505,0.1567,0.156,0.1565,0.1604,0.1613,0.1614,0.1615,0.1676,0.1683,0.1688,0,0,0,0,0,0,0.1487,0.1451,0.1479,0.1459,0.1469,0.1441,0.1448,0.1452,0.1479,0.1498,0.151,0.152,0.1569,0.1566,0.1558,0.1617,0.1591,0.1593,0.1636,0.1642,0.1647,0.1679,0.1566,0,0,0,0,0,0.1497,0.1468,0.1467,0.1456,0.1467,0.1468,0.1468,0.1478,0.1484,0.1498,0.1519,0.1543,0.1568,0.1591,0.1608,0.1638,0.1685,0.1663,0.1669,0.1673,0.17,0.1799,0.1818,0.1618,0.1618,0.1618,0,0,0.1498,0.1477,0.1464,0.1458,0.147,0.1481,0.1475,0.1481,0.1498,0.1503,0.1544,0.1564,0.1578,0.162,0.1641,0.163,0.1753,0.1674,0.1679,0.1703,0.1803,0.1823,0.184,0.1619,0.1619,0.1619,0,0,0.1469,0.1483,0.146,0.1475,0.1491,0.1495,0.1504,0.1507,0.1532,0.1556,0.1575,0.1623,0.1637,0.1675,0.1688,0.1727,0.1775,0.1726,0.1788,0.1884,0.1902,0.1919,0.2007,0.2031,0.1732,0.1732,0.1732,0,0.1485,0.1464,0.1458,0.1462,0.1481,0.1505,0.1524,0.1539,0.1556,0.1599,0.1581,0.1662,0.1666,0.175,0.176,0.1746,0.1808,0.1767,0.1896,0.1913,0.193,0.2015,0.2041,0.1735,0.1735,0.1734,0.1734,0,0.1447,0.1462,0.1455,0.1472,0.1495,0.1509,0.1543,0.1585,0.161,0.1639,0.1728,0.1742,0.1806,0.1801,0.179,0.1909,0.1919,0.1893,0.1891,0.1955,0.2039,0.2066,0.174,0.1739,0.1738,0.1737,0,0,0.1411,0.1423,0.1434,0.1469,0.1511,0.1525,0.158,0.1649,0.1717,0.175,0.184,0.1876,0.1922,0.194,0.195,0.2018,0.2167,0.201,0.2014,0.2116,0.24,0.2256,0.2271,0.2179,0.2184,0.2187,0.2415,0,0.1406,0.1407,0.1422,0.1473,0.1497,0.1564,0.1615,0.1691,0.1756,0.185,0.1913,0.1988,0.1963,0.2008,0.2084,0.2151,0.2239,0.2109,0.2306,0.2312,0.2193,0.2296,0.2055,0.2224,0.244,0.2445,0.2448,0,0.138,0.139,0.1419,0.1502,0.1527,0.1567,0.1703,0.1754,0.1897,0.1957,0.2074,0.2119,0.2249,0.2189,0.2395,0.2323,0.2379,0.2414,0.2423,0.2289,0.2216,0.2192,0.2263,0.2491,0.2488,0.2485,0.2482,0,0.1349,0.1401,0.1425,0.145,0.1535,0.1597,0.1666,0.1802,0.1875,0.2046,0.2119,0.2283,0.2367,0.248,0.2557,0.2504,0.2766,0.2695,0.2628,0.2619,0.245,0.2416,0.2849,0.2849,0.2849,0.2848,0.2847,0,0.1321,0.1354,0.1422,0.1439,0.1514,0.1598,0.1707,0.1805,0.196,0.2072,0.2183,0.2302,0.2445,0.259,0.2646,0.2737,0.2859,0.2679,0.2681,0.246,0.2426,0.2671,0.2648,0.2856,0.2855,0.2853,0.2851,0,0.1269,0.1305,0.1345,0.1448,0.1488,0.1549,0.1699,0.1783,0.1941,0.2091,0.2148,0.2368,0.2571,0.2693,0.2891,0.2835,0.2931,0.2926,0.2649,0.261,0.27,0.2677,0.2886,0.2883,0.288,0.2878,0.2877,0,0.1224,0.1236,0.1329,0.1359,0.1407,0.1508,0.1577,0.175,0.1845,0.2128,0.2198,0.2444,0.256,0.2795,0.2795,0.288,0.2977,0.2674,0.2488,0.273,0.2712,0.2692,0.2673,0.2314,0.2307,0.2302,0.2298,0,0.1156,0.1196,0.123,0.1288,0.1358,0.1428,0.1554,0.1626,0.1849,0.2,0.2246,0.2361,0.2538,0.2517,0.2573,0.258,0.2628,0.2565,0.2967,0.2297,0.2196,0.2175,0.2175,0.2253,0.2258,0.2261,0.2263,0.2265,0.1108,0.1115,0.1164,0.1222,0.1284,0.1356,0.1424,0.1565,0.1724,0.1947,0.2119,0.2228,0.2254,0.2212,0.2206,0.2216,0.2353,0.2246,0.2261,0.2281,0.213,0.2025,0.2024,0.2027,0.203,0.2032,0.2034,0,0.1045,0.1069,0.1101,0.1164,0.1199,0.1284,0.141,0.1495,0.1664,0.1808,0.1964,0.1813,0.176,0.1874,0.176,0.1707,0.1684,0.1699,0.166,0.1704,0.1743,0.1564,0.131,0.1308,0.1306,0.1305,0,0,0.1013,0.1013,0.1034,0.1067,0.1134,0.1233,0.1313,0.1449,0.1553,0.1604,0.1632,0.1695,0.1755,0.1499,0.1454,0.1388,0.1548,0.1342,0.1916,0.1912,0.195,0.2041,0.181,0,0,0,0,0]},{"header":{"parameterUnit":"m.s-1","parameterCategory":2,"la1":30.2991,"la2":30.254,"lo1":-89.0895,"lo2":-89.0444,"dy":0.0017,"dx":0.0017,"nx":28,"ny":28,"refTime":"2025-11-16T03:00:00:Z","depth":"2","parameterNumber":3,"parameterNumberName":"V-component_of_CURRENTS"},"data":[0,0,0,0,0,0,0,0,0,0,0,0,0,0,0,0,0,0,0,0,0,0,0,0,0,0,0,0,0,0,0,0,0,0,0,0,0,0,0,0,0,0,0,0,0,0,0,0,0,0,0,0,0,0,0,0,0,0,0.0038,0.0037,0,-0.0052,-0.0053,-0.0054,-0.0159,-0.0161,-0.0163,-0.0164,-0.0321,-0.0324,-0.0326,0,0,0,0,0,0,0,0,0,0,0,0,0,0.0125,0.0124,0.0038,0.0037,0.0036,-0.0052,-0.0053,-0.0054,-0.0159,-0.0161,-0.0163,-0.0165,-0.032,-0.0323,-0.0327,0,0,0,0,0,0,0,0,0,0,0,0,0,0.0066,0.0124,0.0038,-0.0026,-0.0033,-0.0051,-0.0053,-0.0055,-0.0159,-0.0161,-0.0163,-0.0166,-0.0319,-0.0323,-0.0327,-0.0307,0,0,-0.034,-0.0342,0,0,0,0,0,0,0,0,0.0069,0.0063,-0.0016,-0.0022,-0.0029,-0.0096,-0.008,-0.0142,-0.0158,-0.0112,-0.0164,-0.0167,-0.025,-0.026,-0.0272,-0.0315,-0.0321,-0.034,-0.0343,-0.0345,-0.0346,0,0,0,0,0,0,0,0.0074,0.0066,0.0001,-0.0017,-0.0025,-0.0048,-0.0059,-0.0092,-0.0169,-0.0116,-0.0124,-0.0132,-0.0254,-0.0268,-0.0277,-0.0324,-0.034,-0.0344,-0.0346,-0.0348,-0.0398,-0.0397,0,0,0,0,0,0,0.0089,0.007,0.0004,-0.0001,0.0016,-0.0048,-0.006,-0.0073,-0.0168,-0.0183,-0.0129,-0.0136,-0.0259,-0.0272,-0.0283,-0.0286,-0.0345,-0.0348,-0.0351,-0.04,-0.0398,-0.0397,0,0,0,0,0,0,0.0091,0.0084,0.0008,0.0033,0.0022,-0.0047,-0.006,-0.0074,-0.0097,-0.0177,-0.0195,-0.014,-0.0262,-0.0277,-0.0311,-0.0292,-0.035,-0.0354,-0.0401,-0.0399,-0.0398,-0.0278,0,0,0,0,0,0,0.0094,0.0085,0.0088,0.0034,0.0021,0.0009,-0.0059,-0.0074,-0.0097,-0.0107,-0.0191,-0.0207,-0.0265,-0.0304,-0.0315,-0.0299,-0.0357,-0.0402,-0.04,-0.0398,-0.0284,-0.0273,-0.0263,0,0,0,0,0,0.0097,0.0116,0.0089,0.0081,0.0025,0.0011,0.0003,-0.0055,-0.0095,-0.0087,-0.0152,-0.0205,-0.0299,-0.0306,-0.032,-0.0304,-0.0403,-0.0401,-0.0398,-0.0288,-0.0275,-0.0264,0,0,0,0,0,0,0.0158,0.0106,0.0075,0.0076,0.005,-0.0007,-0.0006,-0.0044,-0.0087,-0.0106,-0.0188,-0.0207,-0.0234,-0.0278,-0.0284,-0.0312,-0.036,-0.036,-0.0272,-0.0261,-0.025,-0.0219,-0.0361,0,0,0,0,0,0.0175,0.0171,0.0121,0.0124,0.0112,0.0055,0.0042,0.0004,-0.0043,-0.0066,-0.0123,-0.0184,-0.0228,-0.0252,-0.0298,-0.0304,-0.0335,-0.0303,-0.0293,-0.0284,-0.0267,-0.0304,-0.0295,-0.0388,-0.0388,-0.0388,0,0,0.0201,0.0171,0.0169,0.0137,0.0106,0.0107,0.0041,0.0028,0.0026,-0.0074,-0.0093,-0.0151,-0.0223,-0.0239,-0.0254,-0.0276,-0.0268,-0.0281,-0.0272,-0.026,-0.03,-0.0291,-0.0283,-0.0387,-0.0387,-0.0387,0,0,0.0254,0.0222,0.0235,0.0219,0.0183,0.0153,0.0154,0.0102,0.0075,0.0056,-0.0021,-0.0058,-0.0123,-0.0165,-0.0197,-0.0152,-0.0216,-0.0174,-0.0094,-0.0129,-0.0122,-0.0115,-0.0116,-0.0111,-0.0165,-0.0165,-0.0164,0,0.0282,0.0287,0.0242,0.0251,0.0246,0.0179,0.0197,0.0172,0.0117,0.0115,0.0064,-0.0017,-0.0085,-0.0097,-0.0093,-0.0128,-0.0151,-0.0134,-0.0115,-0.011,-0.0105,-0.0108,-0.0104,-0.0158,-0.0159,-0.016,-0.016,0,0.034,0.0344,0.0355,0.0338,0.0336,0.0342,0.0301,0.0294,0.025,0.0224,0.0201,0.0113,0.0067,0.0038,-0.0021,-0.0017,-0.0042,-0.01,-0.0142,-0.0088,-0.0095,-0.0093,-0.015,-0.0152,-0.0154,-0.0155,0,0,0.0386,0.0393,0.0393,0.041,0.0379,0.039,0.0395,0.0394,0.0422,0.0354,0.0378,0.0287,0.0239,0.0201,0.0124,0.0091,0.0096,0.0015,0.001,0.0024,0.0044,-0.0003,-0.0006,0.0034,0.0035,0.0035,0.0038,0,0.0436,0.0485,0.047,0.0522,0.0542,0.0503,0.0529,0.0522,0.0504,0.0517,0.0427,0.0411,0.0301,0.0279,0.0229,0.0131,0.0102,0.0103,-0.0017,-0.002,-0.0063,-0.0006,-0.0035,-0.0039,0.0039,0.0039,0.0039,0,0.0485,0.0514,0.0574,0.0622,0.0629,0.0657,0.0698,0.0715,0.0713,0.0701,0.0666,0.0588,0.0532,0.0419,0.0296,0.0299,0.0185,0.0103,0.0099,0.0015,-0.0064,-0.0087,-0.0039,0.0042,0.0042,0.0042,0.0041,0,0.0538,0.0586,0.0643,0.0653,0.0695,0.0727,0.0753,0.0775,0.0816,0.0818,0.0836,0.0755,0.071,0.0566,0.0382,0.0335,0.0255,0.0163,0.0023,0.0019,-0.0048,-0.0059,0.0074,0.0074,0.0074,0.0074,0.0074,0,0.0591,0.0635,0.0679,0.0712,0.0802,0.0806,0.0907,0.0922,0.0967,0.1038,0.0932,0.0962,0.0736,0.0646,0.0464,0.0277,0.0315,0.0061,0.0017,-0.0005,-0.0012,0.001,0.0003,0.0074,0.0074,0.0074,0.0074,0,0.0633,0.0655,0.0731,0.08,0.0828,0.0894,0.0995,0.1086,0.1099,0.1182,0.1177,0.1122,0.1009,0.0797,0.059,0.0388,0.0212,0.0128,0.0138,0.0094,-0.002,-0.0021,-0.0029,-0.0031,-0.0032,-0.0033,-0.0034,0,0.0659,0.0701,0.0798,0.0859,0.0893,0.0992,0.1084,0.1144,0.1235,0.129,0.1343,0.1258,0.1208,0.0918,0.0569,0.0268,0.0241,0.0038,-0.0085,0.0012,-0.003,-0.0029,-0.0029,-0.011,-0.0112,-0.0113,-0.0114,0,0.0714,0.0746,0.0816,0.0941,0.1044,0.1166,0.1285,0.1374,0.1452,0.152,0.1613,0.1576,0.1255,0.0922,0.0481,0.0275,0.0079,-0.0001,0.0112,-0.0089,-0.0068,-0.0109,-0.0105,-0.0125,-0.0124,-0.0123,-0.0122,-0.0122,0.0758,0.0821,0.092,0.104,0.1153,0.1315,0.1424,0.1564,0.1715,0.1765,0.1744,0.1618,0.123,0.06,0.0323,0.001,-0.0014,-0.0177,-0.0172,-0.0165,-0.0185,-0.0169,-0.0245,-0.0245,-0.0244,-0.0244,-0.0244,0,0.0822,0.0899,0.1018,0.117,0.1305,0.1341,0.1542,0.1655,0.1833,0.1805,0.1799,0.1354,0.0954,0.0594,0.0078,-0.0229,-0.0233,-0.0277,-0.0245,-0.0235,-0.0226,-0.0246,-0.0324,-0.0324,-0.0324,-0.0324,0,0,0.0863,0.099,0.106,0.1275,0.1362,0.1534,0.1638,0.1803,0.1826,0.1808,0.1644,0.1354,0.0918,0.0516,0.0149,-0.0078,-0.0072,-0.0108,-0.0032,0.0055,0.007,-0.0177,-0.02,0,0,0,0,0]}],[{"header":{"parameterUnit":"m.s-1","parameterCategory":2,"la1":30.2991,"la2":30.254,"lo1":-89.0895,"lo2":-89.0444,"dy":0.0017,"dx":0.0017,"nx":28,"ny":28,"refTime":"2025-11-16T03:00:00:Z","depth":"4","parameterNumber":2,"parameterNumberName":"U-component_of_CURRENTS"},"data":[0,0,0,0,0,0,0,0,0,0,0,0,0,0,0,0,0,0,0,0,0,0,0,0,0,0,0,0,0,0,0,0,0,0,0,0,0,0,0,0,0,0,0,0,0,0,0,0,0,0,0,0,0,0,0,0,0,0,0.0448,0.0448,0,0.0489,0.0489,0.049,0.0545,0.0545,0.0546,0.0546,0.058,0.058,0.058,0,0,0,0,0,0,0,0,0,0,0,0,0,0.0412,0.0413,0.0448,0.0448,0.0448,0.0488,0.0489,0.049,0.0545,0.0545,0.0546,0.0547,0.0579,0.058,0.058,0,0,0,0,0,0,0,0,0,0,0,0,0,0.0441,0.0413,0.0448,0.0478,0.0481,0.0488,0.0489,0.049,0.0544,0.0545,0.0546,0.0547,0.0579,0.058,0.058,0.0564,0,0,0.0582,0.0582,0,0,0,0,0,0,0,0,0.0439,0.0442,0.0473,0.0476,0.0479,0.051,0.0489,0.0514,0.0544,0.0523,0.0547,0.0548,0.0553,0.0555,0.0565,0.0565,0.0567,0.0582,0.0582,0.0582,0.0582,0,0,0,0,0,0,0,0.0437,0.0441,0.0467,0.0473,0.0477,0.0488,0.0493,0.0494,0.0534,0.0525,0.0529,0.0528,0.0555,0.0565,0.0567,0.0567,0.0582,0.0582,0.0582,0.0582,0.0667,0.0669,0,0,0,0,0,0,0.0425,0.0439,0.0466,0.0468,0.0458,0.0487,0.0494,0.0501,0.0535,0.054,0.0527,0.053,0.0564,0.0566,0.0568,0.0639,0.0582,0.0582,0.0583,0.0665,0.0667,0.0669,0,0,0,0,0,0,0.0424,0.0427,0.0464,0.0451,0.0457,0.0487,0.0495,0.0502,0.0538,0.0536,0.0542,0.0559,0.0565,0.0567,0.0591,0.0637,0.0583,0.0583,0.0662,0.0665,0.0668,0.0724,0,0,0,0,0,0,0.0423,0.0427,0.0442,0.0451,0.0457,0.0481,0.0494,0.0502,0.0532,0.0538,0.0564,0.0567,0.0566,0.059,0.0591,0.0637,0.0583,0.066,0.0664,0.0667,0.072,0.0729,0.0736,0,0,0,0,0,0.0422,0.0432,0.0443,0.0447,0.0472,0.0481,0.0486,0.0511,0.0533,0.0549,0.057,0.0567,0.0616,0.0591,0.0592,0.0639,0.0658,0.0663,0.0667,0.0716,0.0727,0.0736,0,0,0,0,0,0,0.0419,0.0438,0.0451,0.0466,0.0478,0.0489,0.0505,0.0524,0.0555,0.0566,0.0575,0.0579,0.0621,0.062,0.0593,0.0678,0.0643,0.0648,0.0681,0.0691,0.0699,0.0716,0.0584,0,0,0,0,0,0.0424,0.0438,0.0455,0.0463,0.0476,0.0497,0.051,0.0524,0.0543,0.056,0.0586,0.0613,0.0636,0.0654,0.0667,0.0702,0.0685,0.074,0.0748,0.0755,0.0772,0.0768,0.0776,0.0684,0.0684,0.0684,0,0,0.0424,0.0433,0.0443,0.0464,0.0479,0.0499,0.0509,0.0528,0.0564,0.0555,0.0624,0.0635,0.0649,0.0694,0.0715,0.0702,0.0773,0.076,0.0766,0.078,0.0773,0.0782,0.079,0.0687,0.0686,0.0686,0,0,0.0419,0.0441,0.0458,0.0473,0.0494,0.0505,0.0517,0.0551,0.0596,0.064,0.0655,0.0689,0.0731,0.0754,0.0768,0.0828,0.0809,0.0849,0.0912,0.0908,0.0915,0.0921,0.0905,0.0909,0.0862,0.0862,0.0862,0,0.0416,0.0442,0.0461,0.048,0.0498,0.0514,0.0539,0.0579,0.0622,0.0658,0.0671,0.0745,0.0761,0.0811,0.0856,0.0847,0.084,0.0869,0.0916,0.0922,0.0927,0.0909,0.0913,0.0865,0.0865,0.0864,0.0864,0,0.0433,0.0455,0.0463,0.0498,0.0521,0.0536,0.0585,0.063,0.068,0.0715,0.0788,0.0814,0.0867,0.0882,0.0898,0.096,0.0941,0.0916,0.0885,0.094,0.0918,0.0921,0.087,0.0868,0.0867,0.0867,0,0,0.0416,0.0466,0.0471,0.0497,0.0535,0.0554,0.0617,0.0675,0.0717,0.0786,0.0859,0.0923,0.0954,0.0975,0.0997,0.1011,0.1051,0.1006,0.1004,0.098,0.1043,0.0986,0.0983,0.1037,0.1039,0.104,0.101,0,0.0424,0.0461,0.049,0.0532,0.056,0.06,0.0661,0.0717,0.0763,0.0838,0.0897,0.0968,0.0987,0.1032,0.1054,0.1051,0.1065,0.1062,0.1004,0.1002,0.0936,0.0987,0.1043,0.1011,0.1012,0.1013,0.1013,0,0.044,0.0463,0.0506,0.0568,0.0589,0.0623,0.0701,0.0754,0.0842,0.0893,0.096,0.1013,0.1097,0.1094,0.1115,0.1117,0.111,0.1087,0.1084,0.1017,0.0952,0.0949,0.1017,0.1017,0.1017,0.1016,0.1016,0,0.0426,0.0479,0.0514,0.0533,0.0604,0.0652,0.0702,0.0773,0.0844,0.0937,0.0992,0.1062,0.1128,0.1129,0.1141,0.114,0.1125,0.1098,0.1025,0.1019,0.105,0.1044,0.1105,0.1105,0.1105,0.1105,0.1105,0,0.042,0.0449,0.0517,0.0536,0.0603,0.0662,0.073,0.0787,0.0891,0.0957,0.104,0.1088,0.1146,0.1161,0.1149,0.1101,0.1131,0.105,0.1017,0.1074,0.1072,0.1051,0.1046,0.1104,0.1104,0.1104,0.1104,0,0.039,0.043,0.0472,0.0557,0.0595,0.0645,0.0769,0.0814,0.091,0.0999,0.106,0.1142,0.114,0.1156,0.1134,0.1101,0.1056,0.1027,0.1093,0.106,0.0949,0.0947,0.0944,0.0942,0.094,0.0938,0.0937,0,0.0377,0.0395,0.0477,0.0513,0.0555,0.064,0.0702,0.0822,0.0871,0.1,0.1045,0.1108,0.114,0.1054,0.1058,0.1013,0.0999,0.0979,0.0981,0.097,0.0937,0.0938,0.0938,0.0934,0.0934,0.0934,0.0933,0,0.0347,0.0375,0.0409,0.0479,0.0546,0.0614,0.0714,0.0766,0.089,0.0985,0.1025,0.1046,0.1029,0.1,0.0983,0.0944,0.0997,0.0961,0.0964,0.0966,0.0959,0.0928,0.093,0.0927,0.0928,0.0928,0.0929,0,0.0325,0.0335,0.0382,0.0442,0.0519,0.0581,0.0635,0.0713,0.0797,0.0955,0.0939,0.0972,0.1011,0.096,0.093,0.0909,0.0893,0.0871,0.0879,0.0885,0.0881,0.0864,0.0788,0,0,0,0,0,0.03,0.0308,0.0351,0.0415,0.0487,0.0532,0.0644,0.0697,0.0816,0.0833,0.0905,0.0889,0.0877,0.0869,0.0832,0.088,0.0882,0.0833,0.0858,0.0893,0.09,0.0901,0,0,0,0,0,0,0.0281,0.031,0.0328,0.0383,0.042,0.0497,0.056,0.0635,0.0654,0.0766,0.0747,0.0835,0.0808,0.0878,0.0808,0.0811,0.0812,0.0858,0.0856,0.089,0.0896,0.0901,0.0905,0,0,0,0,0]},{"header":{"parameterUnit":"m.s-1","parameterCategory":2,"la1":30.2991,"la2":30.254,"lo1":-89.0895,"lo2":-89.0444,"dy":0.0017,"dx":0.0017,"nx":28,"ny":28,"refTime":"2025-11-16T03:00:00:Z","depth":"4","parameterNumber":3,"parameterNumberName":"V-component_of_CURRENTS"},"data":[0,0,0,0,0,0,0,0,0,0,0,0,0,0,0,0,0,0,0,0,0,0,0,0,0,0,0,0,0,0,0,0,0,0,0,0,0,0,0,0,0,0,0,0,0,0,0,0,0,0,0,0,0,0,0,0,0,0,0.0296,0.0295,0,0.0276,0.0275,0.0275,0.0283,0.0283,0.0284,0.0284,0.0236,0.0234,0.0232,0,0,0,0,0,0,0,0,0,0,0,0,0,0.0317,0.0317,0.0296,0.0295,0.0295,0.0276,0.0275,0.0275,0.0283,0.0283,0.0284,0.0285,0.0237,0.0234,0.0232,0,0,0,0,0,0,0,0,0,0,0,0,0,0.0302,0.0317,0.0296,0.0298,0.0298,0.0276,0.0275,0.0275,0.0282,0.0283,0.0284,0.0285,0.0237,0.0235,0.0232,0.0197,0,0,0.0223,0.0222,0,0,0,0,0,0,0,0,0.0303,0.0301,0.0298,0.0298,0.0298,0.0284,0.0265,0.0248,0.0282,0.0287,0.0284,0.0285,0.025,0.0246,0.0238,0.0194,0.0192,0.0223,0.0221,0.022,0.0219,0,0,0,0,0,0,0,0.0304,0.0302,0.0286,0.0297,0.0298,0.0292,0.0291,0.0262,0.0262,0.0286,0.0287,0.0287,0.0249,0.0241,0.0237,0.0192,0.0223,0.0221,0.0219,0.0218,0.0124,0.0123,0,0,0,0,0,0,0.031,0.0303,0.0287,0.0286,0.0304,0.0291,0.029,0.0286,0.0263,0.0261,0.0286,0.0288,0.0245,0.024,0.0236,0.0208,0.022,0.0218,0.0216,0.0124,0.0123,0.0123,0,0,0,0,0,0,0.031,0.0308,0.0288,0.0295,0.0293,0.029,0.0286,0.0285,0.0284,0.0263,0.0261,0.0287,0.0246,0.0239,0.0219,0.0206,0.0216,0.0214,0.0125,0.0124,0.0123,0.0144,0,0,0,0,0,0,0.0311,0.0308,0.031,0.0296,0.0293,0.0281,0.0285,0.0284,0.0283,0.0285,0.0262,0.0259,0.0246,0.0224,0.0217,0.0202,0.0212,0.0127,0.0125,0.0123,0.0144,0.0143,0.0143,0,0,0,0,0,0.0311,0.0311,0.031,0.0309,0.0294,0.0281,0.0279,0.0279,0.0282,0.0281,0.0269,0.026,0.0208,0.0221,0.0213,0.0198,0.0127,0.0125,0.0124,0.0144,0.0144,0.0143,0,0,0,0,0,0,0.032,0.0311,0.0311,0.0307,0.0299,0.0284,0.0283,0.028,0.0268,0.0272,0.0252,0.0247,0.0222,0.0204,0.0219,0.0164,0.0164,0.016,0.0182,0.0181,0.0181,0.0185,0.0209,0,0,0,0,0,0.0322,0.0323,0.0309,0.0309,0.0303,0.0292,0.0289,0.0288,0.0275,0.0272,0.0254,0.0231,0.0204,0.0192,0.0166,0.0138,0.0112,0.012,0.0119,0.0119,0.0116,0.0066,0.0061,0.0116,0.0116,0.0116,0,0,0.0326,0.0322,0.0322,0.0311,0.0304,0.03,0.0292,0.0288,0.0287,0.0266,0.0256,0.0228,0.0195,0.0168,0.0153,0.0155,0.0089,0.0116,0.0117,0.0113,0.0063,0.0058,0.0053,0.0115,0.0115,0.0115,0,0,0.0334,0.0328,0.0331,0.0325,0.0318,0.0309,0.0309,0.0293,0.0289,0.0273,0.0254,0.0223,0.0186,0.0159,0.0141,0.0117,0.0087,0.0102,0.0103,0.0055,0.005,0.0046,0.001,0.0002,0.0103,0.0103,0.0103,0,0.0341,0.034,0.0329,0.0331,0.0327,0.0315,0.0314,0.0305,0.0286,0.0274,0.0276,0.0204,0.0182,0.0137,0.013,0.0116,0.0085,0.0114,0.0055,0.005,0.0045,0.001,0.0001,0.0103,0.0103,0.0103,0.0103,0,0.0348,0.0351,0.0351,0.0349,0.0342,0.034,0.0325,0.0316,0.0306,0.029,0.0248,0.0211,0.0167,0.015,0.0134,0.008,0.0069,0.0061,0.0062,0.0041,0.0005,-0.0005,0.0104,0.0104,0.0104,0.0104,0,0,0.0352,0.0356,0.0357,0.0362,0.0352,0.0346,0.0339,0.0319,0.0305,0.0282,0.0249,0.0203,0.0173,0.0149,0.0115,0.0074,0.0016,0.0052,0.0049,0.0026,-0.009,-0.0079,-0.0089,-0.0005,-0.0007,-0.0008,-0.0098,0,0.0361,0.0374,0.0368,0.0375,0.0376,0.0361,0.0353,0.0335,0.0307,0.0272,0.0229,0.0188,0.0176,0.0146,0.0102,0.0029,-0.001,0.0041,-0.0074,-0.0077,-0.0058,-0.01,-0.0014,-0.0106,-0.0108,-0.011,-0.0111,0,0.0366,0.0376,0.039,0.0388,0.0385,0.0389,0.0361,0.0351,0.0301,0.0276,0.0227,0.0185,0.0118,0.0112,-0.0006,0.0024,-0.0031,-0.0077,-0.0082,-0.0087,-0.0084,-0.0084,-0.0129,-0.0127,-0.0126,-0.0125,-0.0124,0,0.0376,0.0385,0.04,0.0402,0.04,0.0401,0.0394,0.0356,0.0344,0.0276,0.0248,0.0164,0.0115,0.0036,-0.0054,-0.0041,-0.0186,-0.0177,-0.0214,-0.0213,-0.0202,-0.0197,-0.0257,-0.0257,-0.0257,-0.0257,-0.0256,0,0.0383,0.0393,0.0413,0.0424,0.0435,0.0421,0.0415,0.0392,0.0352,0.0326,0.0254,0.02,0.009,-0.0002,-0.0072,-0.0178,-0.02,-0.0226,-0.0243,-0.0191,-0.0183,-0.0209,-0.0202,-0.026,-0.0259,-0.0259,-0.0258,0,0.0387,0.0403,0.0425,0.0439,0.0447,0.0455,0.0455,0.0442,0.04,0.0358,0.034,0.0217,0.0088,-0.0014,-0.0162,-0.02,-0.0299,-0.0326,-0.0265,-0.0275,-0.0287,-0.0278,-0.0378,-0.0379,-0.0379,-0.038,-0.038,0,0.0389,0.0405,0.0446,0.0463,0.0476,0.0489,0.0495,0.0475,0.0458,0.0364,0.034,0.0206,0.0119,-0.0083,-0.0194,-0.0329,-0.0335,-0.0376,-0.0328,-0.0296,-0.0303,-0.0293,-0.0284,-0.0381,-0.0381,-0.0381,-0.0381,0,0.039,0.0414,0.0435,0.0478,0.0504,0.0517,0.0524,0.0524,0.0481,0.045,0.0334,0.0218,0.0063,-0.009,-0.0199,-0.0292,-0.0346,-0.038,-0.0379,-0.0335,-0.0301,-0.0305,-0.0295,-0.0383,-0.0383,-0.0382,-0.0382,0,0.0393,0.0411,0.0449,0.048,0.0515,0.0529,0.0534,0.0507,0.0493,0.0411,0.0364,0.0195,0.0093,-0.0074,-0.018,-0.0269,-0.0277,-0.0277,-0.0282,-0.0281,-0.0219,-0.0159,-0.0225,0,0,0,0,0,0.0387,0.0407,0.044,0.0475,0.0509,0.0529,0.054,0.0536,0.0512,0.0448,0.0414,0.0274,0.0082,-0.0028,-0.0113,-0.018,-0.0289,-0.0281,-0.0289,-0.0391,-0.039,-0.0331,0,0,0,0,0,0,0.0382,0.0416,0.0436,0.0463,0.0489,0.0518,0.0533,0.0516,0.0477,0.0437,0.0329,0.0274,0.0081,0.0137,-0.0111,-0.0145,-0.0155,-0.0375,-0.0376,-0.0393,-0.0391,-0.0389,-0.0329,0,0,0,0,0]}]]